Other Public Products
Issued by NWS Grand Forks, ND

Home | Current Version | Previous Version | Graphics & Text | Print | Product List | Glossary On
Versions: 1 2 3 4 5 6 7 8 9 10 11 12 13 14 15 16 17 18 19 20 21 22 23 24 25 26 27 28 29 30 31 32 33 34 35 36 37 38 39 40 41 42 43 44 45 46 47 48 49 50
000
FPUS83 KFGF 221410
OPUFGF
PRAIRIE TO PINES WEATHER ROUNDUP
NATIONAL WEATHER SERVICE EASTERN NORTH DAKOTA/GRAND FORKS ND
900 AM CDT SUN APR 22 2018

 **SATELLITE DATA USED TO AUGMENT SKY COVER AT AUTOMATED STATIONS**
 *****  WEATHER ACROSS EASTERN NORTH DAKOTA  *****

CITY           SKY/WX    TMP DP  RH WIND       PRES   REMARKS
GRAND FORKS    FAIR      41  38  89 S14       30.23S
GRND FORKS AFB FAIR      44  37  75 S14       30.21F
GRND FORKS NWS   N/A     42  37  82 S23       30.21S
BUXTON           N/A     42  38  86 S12         N/A
DEVILS LAKE    FAIR      43  33  68 S15       30.17R
FARGO          FAIR      46  34  62 S15       30.28R
WAHPETON ARPT  FAIR      41  34  75 SE8       30.30R
$$

 *****  WEATHER ACROSS CENTRAL AND WESTERN NORTH DAKOTA  *****

CITY           SKY/WX    TMP DP  RH WIND       PRES   REMARKS
JAMESTOWN      FAIR      42  36  79 S14       30.21F
BISMARCK       FAIR      45  36  70 S12       30.18S
MINOT          FAIR      48  37  65 SW14      30.10R
MINOT AFB      FAIR      48  38  67 W10       30.09R
GARRISON         N/A     41  37  86 SW9       30.13R
WILLISTON      FAIR      47  30  51 CALM      30.13R
DICKINSON      FAIR      45  37  73 W3        30.11S
HETTINGER      FAIR      40  36  86 SW5       30.16R
$$

 *****  OTHER OBSERVATIONS NORTHEAST NORTH DAKOTA  *****

CITY           SKY/WX    TMP DP  RH WIND       PRES   REMARKS
WALHALLA       FAIR      50  36  57 SW13G23   30.14R
LANGDON        NOT AVBL
CAVALIER         N/A     45  36  70 S15       30.15S
GRAFTON        NOT AVBL
CANDO          FAIR      45  37  76 S14       30.16R
FORT TOTTEN      N/A     44  33  65 SW12      29.95
ROLLA          FAIR      41  41 100 SW14      30.10S
RUGBY          NOT AVBL
 ***** THE ABOVE OBSERVATIONS ARE NON NWS ARE NOT QUALITY
        CONTROLLED AND MAY MIS-REPORT RAIN FOR SNOW...
$$

 *****  OTHER OBSERVATIONS SOUTHEAST NORTH DAKOTA *****

CITY           SKY/WX    TMP DP  RH WIND       PRES   REMARKS
COOPERSTOWN    FAIR      41  37  87 S13       30.22F
VALLEY CITY    NOT AVBL
OAKES            N/A     41  36  81 S14       30.27S
GWINNER          N/A     43  36  75 SW9       30.27S
SHEYENNE NWR     N/A     44  38  80 SW6       29.95S
BUFFALO          N/A     41  34  76 E12         N/A
WYNDMERE       NOT AVBL
 ***** THE ABOVE OBSERVATIONS ARE NON NWS ARE NOT QUALITY
       CONTROLLED AND MAY MIS-REPORT RAIN FOR SNOW...
$$

  *****  WEATHER ACROSS NORTHERN MINNESOTA  *****

CITY           SKY/WX    TMP DP  RH WIND       PRES   REMARKS
FLAG ISLAND    FAIR      36  32  87 S13       30.21F
WARROAD        FAIR      46  37  71 S7        30.23F
ROSEAU         FAIR      45  37  76 S14       30.22S
HALLOCK        FAIR      45  39  81 S20       30.18F
THF RVR FALLS  FAIR      45  33  63 S15       30.26F
HALSTAD        NOT AVBL
FOSSTON        FAIR      45  30  57 S16       30.28S
BAUDETTE       FAIR      46  32  58 S8        30.26S
WASKISH        FAIR      46  34  61 W7        30.29S
CROOKSTON      FAIR      45  36  70 S16       30.26S
$$
  *****  WEATHER ACROSS CENTRAL AND WEST MINNESOTA  *****

CITY           SKY/WX    TMP DP  RH WIND       PRES   REMARKS
BEMIDJI        FAIR      46  32  57 S7        30.29S
PARK RAPIDS    FAIR      44  33  65 S7        30.30F
WADENA         FAIR      43  36  75 CALM      30.31F
DETROIT LAKES  FAIR      45  32  61 S6        30.30S
MOORHEAD       FAIR      43  36  75 S6        30.30R
FERGUS FALLS   FAIR      45  36  70 S13       30.28F
ELBOW LAKE     FAIR      44  36  73 SE10      30.31S
MORRIS MN      FAIR      43  37  81 SE9       30.31S
STAPLES        FAIR      43  34  70 S6        30.33S
WHEATON        FAIR      43  34  70 SE9       30.32S
$$
  *****  WEATHER ELSEWHERE ACROSS MINNESOTA  *****

CITY           SKY/WX    TMP DP  RH WIND       PRES   REMARKS
DULUTH         FAIR      49  25  39 S6        30.36S
INTRNTL FALLS  FAIR      48  31  51 SW6       30.30R
ELY            FAIR      45  21  39 CALM      30.34F
CLOQUET        FAIR      45  16  31 SE5       30.36S
BRAINERD       FAIR      48  33  56 SE5       30.35R
HIBBING        FAIR      41  22  46 SE3       30.34S
ALEXANDRIA     FAIR      49  35  58 S6        30.33S
SAINT CLOUD    FAIR      43  34  70 S6        30.36S
MINNEAPOLIS    FAIR      48  35  60 E3        30.38S
$$

  *****  WEATHER ACROSS SOUTH DAKOTA  *****

CITY           SKY/WX    TMP DP  RH WIND       PRES   REMARKS
SIOUX FALLS    FAIR      45  35  68 E5        30.30S
BROOKINGS      FAIR      45  36  70 SE5       30.30F
WATERTOWN      CLOUDY    40  35  83 SE8       30.29S
HURON            N/A     44  37  76 S8        30.28R
SISSETON         N/A     44  36  73 SE9       30.27F
ABERDEEN       FAIR      43  37  79 S7        30.28R
MITCHELL       FAIR      43  38  82 SE7       30.29F
PIERRE         FAIR      42  37  82 SE6       30.24R
MOBRIDGE       FAIR      41  36  82 SE12      30.19F
RAPID CITY     FAIR      38  34  85 CALM      30.17R
$$

  *****  SOME WEATHER IN NEARBY STATES *****

CITY           SKY/WX    TMP DP  RH WIND       PRES   REMARKS
GLASGOW MT     FAIR      44  30  57 NW7       30.15R
GREAT FALLS MT FAIR      40  24  53 CALM      30.16R
CHEYENNE WY    FAIR      40  35  83 N6        30.17R
SCOTTSBLUFF NE FOG       36  36 100 E7        30.19R VSB 1/4
OMAHA NE       PTSUNNY   51  32  48 E7        30.24R
DES MOINES IA  PTSUNNY   50  29  44 E13       30.26S
DAVENPORT IA   FAIR      50  26  39 E14       30.32F
CHICAGO IL     PTSUNNY   49  28  44 E7        30.36S
EAU CLAIRE WI  FAIR      45  33  63 CALM      30.38S
LA CROSSE WI   FAIR      45  35  68 N3        30.39R
$$

  *****  SOME NATIONAL WEATHER *****

CITY           SKY/WX    TMP DP  RH WIND       PRES   REMARKS
LA GUARDIA NY  FAIR      54  23  30 NW8       30.41S
RALEIGH NC     PTSUNNY   59  44  57 S5        30.39S
ATLANTA GA     CLOUDY    60  55  83 E13       30.21F
NEW ORLEANS LA LGT RAIN  71  70  96 SE10      29.93F FOG
OKLAHOMA CITY  CLOUDY    46  42  86 N20       30.10R
ALBUQUERQUE NM FAIR      44  34  67 N12       30.19S
SALT LAKE CITY FAIR      52  33  48 SE9       30.14R
LOS ANGELES CA FAIR      58  53  84 E5        29.94S
BOISE ID       FAIR      41  24  51 W3        30.15R
SEATTLE WA     FAIR      44  37  76 N8        30.41R
$$

*** WEATHER ACROSS MANITOBA...SASKATCHEWAN AND ONTARIO ***
                ***ONTARIO***

CITY           SKY/WX    TMP DP  RH WIND       PRES   REMARKS
GERALDTON      PTSUNNY   48  21  34 SW8       30.32S
THUNDER BAY    PTSUNNY   41  27  56 VRB2      30.38F
SIOUX LOOKOUT  CLOUDY    46  28  49 S6        30.25S
TORONTO        SUNNY     52  19  28 N3        30.45S
BIG TROUT LK   SUNNY     43  28  56 S7        30.10F
PICKLE LAKE    PTSUNNY   48  25  40 SW8       30.20F
DRYDEN         CLOUDY    45  30  57 S9        30.24F
KENORA         MOSUNNY   45  34  65 S12G20    30.20F
$$
                *** MANITOBA***

CITY           SKY/WX    TMP DP  RH WIND       PRES   REMARKS
BRANDON        PTSUNNY   46  37  71 W14G21    30.03S
DAUPHIN        SUNNY     48  37  66 SW13G20   29.93S
ISLAND LAKE    PTSUNNY   50  36  57 S14G25    29.86F
PILOT MOUND      N/A     45  36  70 SW25        N/A
THE PAS        CLOUDY    41  36  81 S13G20    29.57S
THOMPSON       NOT AVBL
WINNIPEG       MOSUNNY   50  34  53 S24G35    30.08S
LYNN LAKE      RAIN      37  37 100 E14       29.51F FOG
CHURCHILL      CLOUDY    25  23  93 E18G29    30.07F WCI  11
GILLAM         CLOUDY    36  34  93 E12G20    29.81F
$$
                ***SASKATCHEWAN***

CITY           SKY/WX    TMP DP  RH WIND       PRES   REMARKS
ESTEVAN        MOSUNNY   45  32  61 SW9       30.10R
KINDERSLEY     MOSUNNY   39  28  65 W18       30.03R
LLOYDMINSTER   MOSUNNY   39  28  65 W23G32    29.88R
PRINCE ALBERT  PTSUNNY   41  36  81 W18G26    29.76R
REGINA         MOSUNNY   43  36  75 W13       30.04R
YORKTON        SUNNY     45  36  70 SW18G25   29.92R



USA.gov is the U.S. government's official web portal to all federal, state and local government web resources and services.